Weather in Razdolye

Russia / Irkutsk Oblast     52°26′45″N   103°11′53″E
temp.,
°C
wind,
m/s
gust,
m/s
humid.,
%
clouds,
%
prec.,
mm/h
press.,
hPa
HPBL,
m
14 june, mon
mon1423:00+7wsw239519 0.0 101254
02:00+6ssw229598 0.0 101121
05:00+6s119514 0.0 101114
08:00+13sse12645 0.0 1009297
11:00+18e214185 0.0 10071535
14:00+19e2238100 0.0 10061939
17:00+19sse234298 0.0 10041407
20:00+9nnw71297100 7.8 1010646
15 june, tue
tue1523:00+9wnw4119590 1.4 1012686
02:00+8wnw41193100 1.5 1013686
05:00+7nw41092100 0.3 1014610
08:00+7nw4983100 0.3 1016793
11:00+8nw578061 0.3 1017979
14:00+12wnw4654100 0.6 10151670
17:00+14nw464386 0.1 10132189
20:00+12nnw365721 0.1 1014596
16 june, wed
wed1623:00+6w239214 0.1 101647
02:00+5w27955 0.1 1017176
05:00+4w259714 0.0 1017113
08:00+9w41080100 0.1 10161188
11:00+7w41096100 3.0 10161127
14:00+9wnw31295100 7.8 10151355
17:00+9wnw21197100 4.8 1014634
20:00+11nnw3109098 5.6 1014401
17 june, thu
thu1723:00+9wsw229558 0.1 101430
02:00+6wsw22945 0.1 101439
05:00+5wsw22945 0.0 101529
08:00+11wnw248260 0.0 1014247
11:00+18nnw35475 0.0 10121431
14:00+21n344271 0.0 10112129
17:00+21ne3342100 0.0 10101750
20:00+16nne2371100 0.0 101076
18 june, fri
fri1823:00+14ssw1173100 0.0 101010
02:00+13wnw2380100 0.0 101090
05:00+11w1187100 0.0 101021
08:00+15sw117281 0.0 1009258
11:00+18w1264100 0.4 10081066
14:00+21sw1151100 1.1 10061393
17:00+19n235498 0.0 10051439
20:00+14w3589100 0.7 1006158